Showing default

GALILEO 6 (262), 40129

Orbit data source: Space-Track

GALILEO 6 (262), 40129 is a payload satellite owned by GNSS Agency (ESA) in MEO that was launched on Fri, 22 Aug 2014 UTC via a SOYUZ-ST-B launch vehicle from the French Guiana (FRGUI). Payload-class satellites include a variety of spacecraft equipped with specific instruments for various scientific and technological missions. These include communications satellites like Starlink; space stations such as the ISS; scientific satellites like the Hubble; Earth observation satellites from companies like Planet Labs, Umbra, and HawkEye 360; GPS; miniature CubeSats for education and research; and military/defense satellites.

Loading next visibility...
Identifier
40129, 2014-050B
Orbit
MEO
Country
Flag of ESAESA
Related business
Manufacturer
OHB
Mission
On reserve Civil Navigation
Bus & Motor
GALILEOSAT, AOCS
Mass
733 kg wet, 700 kg dry
Launch date (UTC)
2014-08-22 (11 years ago)
Launch vehicle
SOYUZ-ST-B
Launch site
French Guiana (FRGUI)
Object type
Payload
Rocket body
Debris
Shape & HBR
Box + 2 Pan, 7.3 m
Radar Cross Section
9.223 m², Large (>1 m²)

Expand to show TLE details & history
Last TLE update: 4 days ago

TLE from 4 days ago
0 GALILEO 6 (262)
1 40129U 14050B   26033.92657438 -.00000031  00000-0  00000-0 0  9999
2 40129  49.0338 278.0153 1654467 174.9621 186.9780  1.85520617 77990
Epoch: 2026-02-02T22:14Z
TLE epoch observation values (Epoch: 2026-02-02T22:14:16.026Z)
Latitude
-0.00003°
Longitude
171.35946°
Altitude
26,209.261 km
Speed
3.196 km/s
True Right ascension
18h 32m 09s
True Declination
0° 00' 00"
Sunlit
Object was in daylight at epoch
Visualization orbit readout
Latitude
Unknown
Longitude
Unknown
Altitude
Unknown
Speed
Unknown
Apparent Right ascension
Unknown
Apparent Declination
Unknown
Sunlit
N/A
Visualization observer readout
Local Sidereal Time
17:43:13
Azimuth
Unknown
Elevation
Unknown
Doppler factor
Unknown
Orbital elements
Apogee altitude
26,228.306 km
Perigee altitude
16,970.691 km
Semi-major axis
27,977.636 km
Eccentricity
0.16545
Inclination
49.0338°
RAAN
278.0153°
Arg. of periapsis
174.9621°
True anomaly
185.06925°
Mean anomaly
186.978°
Eccentric anomaly
185.98895°
Mean motion
0.4638 °/min
Orbital period
776.2 mins
BSTAR
0
Loading maneuver chart data...
Computing Atmospheric mass density...
Loading historical data...
Loading historical data...
Loading historical data...
Loading historical data...
Loading historical data...
Loading historical data...
Loading historical data...
Other satellites on launch #50 in the year 2014 (2014-08-22 UTC)

Documentation

Showing up to 5 results
|